Burnet, TX

5:58 AM CST on December 10, 2016 (GMT -0600)
Burnet Municipal-Craddock

Weather History for KBMQ - February, 2013

Change the Weather History Date:

Wednesday, February 20, 2013

  Actual Average Record
Temperature  
Mean Temperature 56 °F -  
Max Temperature 62 °F 60 °F 78 °F (2014)
Min Temperature 50 °F 41 °F 32 °F (2006)
Degree Days  
Heating Degree Days 10    
Growing Degree Days 6 (Base 50)    
Moisture  
Dew Point 44 °F    
Average Humidity 76    
Maximum Humidity 97    
Minimum Humidity 37    
Precipitation  
Precipitation 0.00 in - - ()
Sea Level Pressure  
Sea Level Pressure 29.87 in    
Wind  
Wind Speed 11 mph (ESE)    
Max Wind Speed 15 mph    
Max Gust Speed 28 mph    
Visibility 6 miles    
Events Rain    
Averages and records for this station are not official NWS values.
T = Trace of Precipitation, MM = Missing Value Source: NWS Daily Summary

Daily Weather History Graph

Daily Weather History Graph

Search for Another Location

Airport or City:

Trip Planner

Search our weather history database for the weather conditions in past years. The results will help you decide how hot, cold, wet, or windy it might be!

Date:

Astronomy

Feb. 20, 2013 Rise Set
Actual Time 7:08 AM CST 6:25 PM CST
Civil Twilight 6:44 AM CST 6:49 PM CST
Nautical Twilight 6:16 AM CST 7:17 PM CST
Astronomical Twilight 5:48 AM CST 7:45 PM CST
Moon 1:59 PM CST (2/20) 3:17 AM CST (2/20)
Length of Visible Light 12h 05m
Length of Day
11h 16m
Waxing Gibbous, 76% of the Moon is Illuminated
Feb 20
Waxing Gibbous
Feb 25
Full
Mar 4
Last Quarter
Mar 11
New
Mar 19
First Quarter

Hourly Weather History & Observations

Time (CST) Temp. Dew Point Humidity Pressure Visibility Wind Dir Wind Speed Gust Speed Precip Events Conditions
12:53 AM 55.9 °F 30.9 °F 39% 30.05 in 10.0 mi SE 12.7 mph - N/A   Mostly Cloudy
1:53 AM 55.9 °F 30.9 °F 39% 30.05 in 10.0 mi SE 9.2 mph 19.6 mph N/A   Overcast
2:53 AM 55.0 °F 30.0 °F 38% 30.06 in 10.0 mi SSE 9.2 mph - N/A   Overcast
3:53 AM 54.0 °F 30.9 °F 41% 30.02 in 10.0 mi ESE 15.0 mph 23.0 mph 0.00 in   Overcast
4:53 AM 54.0 °F 28.0 °F 37% 30.02 in 10.0 mi SE 10.4 mph 23.0 mph N/A   Overcast
5:53 AM 53.1 °F 32.0 °F 45% 29.98 in 10.0 mi SE 10.4 mph 24.2 mph N/A   Mostly Cloudy
6:38 AM 52.0 °F 35.1 °F 53% 30.00 in 10.0 mi ESE 8.1 mph 23.0 mph N/A   Overcast
6:53 AM 52.0 °F 35.1 °F 53% 29.98 in 10.0 mi ESE 12.7 mph - N/A   Overcast
7:53 AM 52.0 °F 37.0 °F 57% 29.98 in 10.0 mi ESE 11.5 mph 20.7 mph N/A   Overcast
8:53 AM 52.0 °F 39.0 °F 61% 30.04 in 10.0 mi ESE 5.8 mph - N/A   Overcast
9:53 AM 51.1 °F 39.0 °F 63% 30.00 in 10.0 mi ESE 8.1 mph - 0.00 in   Overcast
11:53 AM 52.0 °F 42.1 °F 69% 29.97 in 9.0 mi ESE 11.5 mph 17.3 mph N/A   Overcast
12:53 PM 53.1 °F 44.1 °F 71% 29.91 in 10.0 mi ESE 8.1 mph 18.4 mph N/A   Overcast
1:39 PM 54.0 °F 46.9 °F 77% 29.89 in 10.0 mi ESE 10.4 mph - 0.00 in   Overcast
1:53 PM 54.0 °F 46.9 °F 77% 29.87 in 7.0 mi ESE 10.4 mph - 0.00 in   Overcast
2:53 PM 51.1 °F 46.9 °F 86% 29.85 in 4.0 mi East 10.4 mph - 0.00 in Rain Light Rain
3:14 PM 51.1 °F 46.9 °F 86% 29.85 in 4.0 mi East 9.2 mph - 0.00 in   Overcast
3:37 PM 50.0 °F 48.0 °F 93% 29.84 in 3.0 mi East 10.4 mph 19.6 mph 0.00 in   Overcast
3:53 PM 50.0 °F 46.9 °F 89% 29.82 in 4.0 mi East 10.4 mph - 0.00 in   Overcast
4:23 PM 50.0 °F 48.0 °F 93% 29.83 in 2.5 mi East 9.2 mph - N/A   Overcast
4:53 PM 50.0 °F 48.0 °F 93% 29.81 in 2.0 mi East 9.2 mph - N/A   Overcast
5:17 PM 51.1 °F 48.9 °F 92% 29.82 in 1.5 mi East 5.8 mph - N/A   Overcast
5:53 PM 51.1 °F 48.9 °F 92% 29.79 in 1.2 mi East 8.1 mph - N/A   Overcast
6:19 PM 51.1 °F 48.9 °F 92% 29.79 in 2.5 mi East 9.2 mph - N/A   Overcast
6:43 PM 52.0 °F 50.0 °F 93% 29.77 in 3.0 mi ESE 9.2 mph 20.7 mph N/A   Overcast
6:53 PM 52.0 °F 50.0 °F 93% 29.76 in 3.0 mi East 12.7 mph 20.7 mph N/A   Overcast
7:29 PM 52.0 °F 50.0 °F 93% 29.77 in 2.5 mi East 12.7 mph 20.7 mph N/A   Overcast
7:53 PM 50.0 °F 48.9 °F 96% 29.75 in 2.5 mi East 12.7 mph - N/A   Overcast
8:53 PM 51.1 °F 50.0 °F 96% 29.72 in 1.5 mi East 12.7 mph 20.7 mph N/A   Overcast
10:31 PM 55.0 °F 54.0 °F 96% 29.70 in 1.0 mi East 11.5 mph - N/A   Overcast
10:53 PM 59.0 °F 57.9 °F 96% 29.67 in 1.8 mi SE 13.8 mph 24.2 mph N/A   Overcast
10:58 PM 61.0 °F 60.1 °F 97% 29.69 in 3.0 mi SE 13.8 mph 27.6 mph N/A   Overcast
11:53 PM 62.1 °F 61.0 °F 96% 29.64 in 4.0 mi SSE 11.5 mph 24.2 mph 0.00 in   Overcast